Location: Kitchener-Waterloo
(43.4500°N, 80.5000°W)
Time: 07:16:41
(UTC-05:00)

Amateur Radio Satellites - All Passes

Search period start: 21 November 2017 06:46
Search period end: 22 November 2017 06:46
Location: Kitchener-Waterloo, 43.4500°N, 80.5000°W

Satellite Date Start Highest point End Downlink Frequencies (MHz)
Time Altitude Azimuth
XW-2C 21 Nov 06:48:05 06:51:51 63° 286° (WNW) 06:55:37 145.795 - 145.815
CUTE 1.7 + AOD 2 21 Nov 06:49:28 06:53:13 29° 96° (E) 06:56:57 437.475
LilacSat-2 21 Nov 06:49:56 06:53:42 55° 286° (WNW) 06:57:27 437.200
AO-85 21 Nov 06:51:17 06:52:02 10° 329° (NNW) 06:52:46 145.980
CUTE-I 21 Nov 06:51:42 06:57:07 84° 104° (ESE) 07:02:28 437.470
XW-2F 21 Nov 06:58:58 07:02:39 49° 287° (WNW) 07:06:19 145.980 - 146.000
UWE-3 21 Nov 07:06:31 07:08:44 14° 91° (E) 07:10:55 435.000/436.395/437.385
PCSat 21 Nov 07:19:24 07:21:04 11° 31° (NNE) 07:22:44 145.827
SEEDS 21 Nov 07:19:59 07:23:58 38° 97° (E) 07:27:56 437.485
KAITUO 1B 21 Nov 07:27:20 07:30:38 29° 290° (WNW) 07:33:56 145.475/437.950
AAUSAT CUBESAT 2 21 Nov 07:27:39 07:30:48 20° 93° (E) 07:33:56 437.432
FO-29 21 Nov 07:33:17 07:39:42 52° 68° (ENE) 07:46:55 435.910
XW-2D 21 Nov 07:42:55 07:45:12 15° 295° (WNW) 07:47:29 145.860 - 145.880
CUBEBUG 2 21 Nov 07:44:24 07:48:34 67° 102° (ESE) 07:52:40 437.445
AO-73 21 Nov 07:47:31 07:50:27 18° 93° (E) 07:53:22 145.935
UNISAT 6 21 Nov 07:49:42 07:50:54 11° 60° (ENE) 07:52:06 437.425
TIGRISAT 21 Nov 07:53:59 07:55:16 11° 60° (ENE) 07:56:32 435.000
XW-2B 21 Nov 07:58:42 07:59:54 11° 297° (WNW) 08:01:06 145.730 - 145.750
STRAND 1 21 Nov 07:59:32 08:03:48 26° 266° (W) 08:08:07 437.568
HO-68 21 Nov 08:00:52 08:08:05 78° 289° (WNW) 08:15:14 435.675
XW-2A 21 Nov 08:01:26 08:04:45 54° 100° (E) 08:08:04 145.665 - 145.685
Oscar 11 21 Nov 08:03:55 08:07:06 20° 93° (E) 08:10:16 .
NUDT-PHONESAT 21 Nov 08:14:47 08:15:02 10° 298° (WNW) 08:15:17 437.300
SO-50 21 Nov 08:21:43 08:23:56 13° 251° (WSW) 08:26:10 436.795
YUBILEINY 21 Nov 08:24:00 08:29:15 17° 303° (WNW) 08:34:34 435.215
CUTE 1.7 + AOD 2 21 Nov 08:25:23 08:28:56 26° 292° (WNW) 08:32:29 437.475
ZACube-1 21 Nov 08:31:41 08:35:49 66° 101° (E) 08:39:57 437.345
CUTE-I 21 Nov 08:33:27 08:36:26 15° 302° (WNW) 08:39:24 437.470
UWE-3 21 Nov 08:41:28 08:45:29 49° 287° (WNW) 08:49:29 435.000/436.395/437.385
PRISM 21 Nov 08:48:18 08:50:37 15° 63° (ENE) 08:52:57 437.425
SEEDS 21 Nov 08:56:16 08:59:24 20° 294° (WNW) 09:02:31 437.485
PCSat 21 Nov 09:00:39 09:05:53 46° 53° (NE) 09:11:05 145.827
AAUSAT CUBESAT 2 21 Nov 09:02:30 09:06:20 35° 290° (WNW) 09:10:09 437.432
Max Valier Satellite 21 Nov 09:06:20 09:07:36 11° 90° (E) 09:08:53 145.860
FO-29 21 Nov 09:19:14 09:25:03 32° 269° (W) 09:31:29 435.910
UNISAT 6 21 Nov 09:22:21 09:26:57 88° 264° (W) 09:31:27 437.425
AO-73 21 Nov 09:22:59 09:26:49 37° 289° (WNW) 09:30:40 145.935
CUBEBUG 2 21 Nov 09:23:02 09:24:37 12° 299° (WNW) 09:26:11 437.445
TIGRISAT 21 Nov 09:26:43 09:31:18 87° 262° (W) 09:35:48 435.000
FALCONSAT 3 21 Nov 09:32:30 09:33:06 10° 157° (SSE) 09:33:42 435.103
DELFI C3 21 Nov 09:32:57 09:36:41 37° 97° (E) 09:40:23 145.870
Oscar 11 21 Nov 09:39:20 09:43:22 39° 289° (WNW) 09:47:24 .
BEESAT 3 21 Nov 09:48:57 09:49:24 10° 33° (NNE) 09:49:52 437.485
HO-68 21 Nov 09:50:22 09:54:41 17° 309° (NW) 09:58:59 435.675
ZACube-1 21 Nov 10:09:55 10:11:34 12° 298° (WNW) 10:13:13 437.345
PRISM 21 Nov 10:21:24 10:25:25 54° 259° (W) 10:29:31 437.425
EO-88 21 Nov 10:36:15 10:39:53 76° 286° (WNW) 10:43:32 145.990 - 145.960
Max Valier Satellite 21 Nov 10:38:08 10:41:41 48° 287° (WNW) 10:45:14 145.860
DUCHIFAT 1 21 Nov 10:39:19 10:42:25 20° 66° (ENE) 10:45:30 145.980
AIST 2D 21 Nov 10:42:13 10:45:40 75° 76° (ENE) 10:49:08 435.315
PCSat 21 Nov 10:44:30 10:49:01 27° 251° (WSW) 10:53:30 145.827
EO-79 21 Nov 10:46:02 10:49:44 30° 68° (ENE) 10:53:26 145.935-145.965
NANOSAT C BR1 21 Nov 10:49:17 10:52:56 29° 68° (ENE) 10:56:34 145.865
ESTCUBE 1 21 Nov 10:52:33 10:55:31 17° 91° (E) 10:58:29 437.505/2401.250
BEESAT 2 21 Nov 10:59:03 11:01:21 14° 38° (NE) 11:03:37 435.950
LO-87 21 Nov 11:00:51 11:03:47 24° 95° (E) 11:06:41 145.935 - 145.965
POLYITAN 1 21 Nov 11:01:01 11:05:01 42° 72° (ENE) 11:09:02 437.675
DELFI C3 21 Nov 11:08:20 11:11:09 19° 294° (WNW) 11:13:57 145.870
FALCONSAT 3 21 Nov 11:08:36 11:11:27 21° 172° (S) 11:14:19 435.103
BEESAT 3 21 Nov 11:23:51 11:27:47 60° 53° (NE) 11:31:37 437.485
QB50P2 21 Nov 11:24:03 11:28:18 86° 78° (ENE) 11:32:35 145.880/145.840
Oscar 19 21 Nov 11:31:34 11:34:12 14° 58° (ENE) 11:36:50 437.125/150
BUGSAT 1 21 Nov 11:31:35 11:34:33 19° 65° (ENE) 11:37:29 437.445
AO-85 21 Nov 11:56:07 11:59:52 24° 43° (NE) 12:03:49 145.980
Gurwin Techsat 1B 21 Nov 11:56:50 12:00:21 18° 60° (ENE) 12:03:53 435.225
SPROUT 21 Nov 12:08:26 12:11:58 25° 95° (E) 12:15:28 437.525
DUCHIFAT 1 21 Nov 12:13:53 12:17:49 38° 262° (W) 12:21:46 145.980
EO-79 21 Nov 12:21:57 12:25:28 25° 265° (W) 12:29:00 145.935-145.965
NANOSAT C BR1 21 Nov 12:25:03 12:28:35 26° 265° (W) 12:32:08 145.865
ESTCUBE 1 21 Nov 12:28:12 12:32:35 50° 288° (WNW) 12:36:58 437.505/2401.250
LO-87 21 Nov 12:34:19 12:37:04 21° 292° (WNW) 12:39:47 145.935 - 145.965
BEESAT 2 21 Nov 12:35:34 12:39:37 83° 238° (WSW) 12:43:36 435.950
POLYITAN 1 21 Nov 12:38:08 12:40:59 17° 268° (W) 12:43:50 437.675
O/OREOS (USA 219) 21 Nov 12:42:23 12:45:40 20° 101° (E) 12:48:57 437.305
M-CUBED/EXP-1 PRIME 21 Nov 12:44:29 12:46:19 13° 56° (NE) 12:48:12 437.505
FALCONSAT 3 21 Nov 12:47:05 12:49:58 22° 187° (S) 12:52:52 435.103
VELOX 1 21 Nov 12:47:53 12:52:08 42° 99° (E) 12:56:21 145.980
BEESAT 3 21 Nov 13:03:02 13:04:47 13° 251° (WSW) 13:06:32 437.485
BUGSAT 1 21 Nov 13:05:38 13:09:36 40° 261° (W) 13:13:34 437.445
Oscar 19 21 Nov 13:07:42 13:12:48 83° 254° (WSW) 13:17:58 437.125/150
AO-7 21 Nov 13:15:56 13:22:35 28° 53° (NE) 13:29:16 .
ITAMSAT 1 21 Nov 13:26:14 13:27:15 11° 55° (NE) 13:28:16 435.822/435.867
DX 1 21 Nov 13:32:59 13:36:50 29° 96° (E) 13:40:38 434.975-435.025
Gurwin Techsat 1B 21 Nov 13:34:28 13:39:45 68° 258° (WSW) 13:45:04 435.225
AO-85 21 Nov 13:35:57 13:40:33 56° 240° (WSW) 13:45:30 145.980
SPROUT 21 Nov 13:44:08 13:47:50 29° 291° (WNW) 13:51:30 437.525
UKube-1 21 Nov 14:14:18 14:18:32 50° 100° (E) 14:22:44 .
M-CUBED/EXP-1 PRIME 21 Nov 14:16:44 14:20:12 53° 255° (WSW) 14:23:58 437.505
50 SAT 21 Nov 14:17:22 14:20:34 62° 285° (WNW) 14:23:44 437.505
O/OREOS (USA 219) 21 Nov 14:20:19 14:24:43 45° 298° (WNW) 14:29:10 437.305
VELOX 1 21 Nov 14:25:00 14:28:16 20° 296° (WNW) 14:31:33 145.980
FALCONSAT 3 21 Nov 14:27:09 14:28:22 11° 202° (SSW) 14:29:33 435.103
YUBILEINY 21 Nov 14:37:01 14:40:28 13° 52° (NE) 14:43:54 435.215
ITAMSAT 1 21 Nov 15:00:33 15:05:45 70° 72° (ENE) 15:10:58 435.822/435.867
AO-7 21 Nov 15:06:20 15:14:36 76° 253° (WSW) 15:22:57 .
DX 1 21 Nov 15:09:12 15:12:56 28° 293° (WNW) 15:16:37 434.975-435.025
NO-84 21 Nov 15:12:59 15:16:32 50° 135° (SE) 15:20:23 435.350 FM
BEESAT 21 Nov 15:15:19 15:19:35 32° 97° (E) 15:23:48 436.000
ITUPSAT 1 21 Nov 15:25:05 15:29:32 39° 98° (E) 15:33:58 437.325
DOVE 4 21 Nov 15:32:18 15:36:23 25° 64° (ENE) 15:40:37 437.250
MOZHAYETS 4 21 Nov 15:34:38 15:39:12 69° 102° (ESE) 15:43:45
CUBESAT XI-V 21 Nov 15:47:32 15:51:14 23° 93° (E) 15:54:55 437.345
UKube-1 21 Nov 15:51:23 15:54:09 17° 297° (WNW) 15:56:56 .
YUBILEINY 21 Nov 16:30:47 16:39:32 59° 77° (ENE) 16:48:12 435.215
KAITUO 1B 21 Nov 16:36:17 16:37:34 12° 63° (ENE) 16:38:51 145.475/437.950
CUTE-I 21 Nov 16:36:24 16:40:26 22° 62° (ENE) 16:44:29 437.470
ITAMSAT 1 21 Nov 16:42:42 16:45:42 15° 270° (W) 16:48:44 435.822/435.867
HO-68 21 Nov 16:45:35 16:50:23 20° 53° (NE) 16:55:10 435.675
XW-2D 21 Nov 16:50:13 16:53:13 23° 68° (ENE) 16:56:15 145.860 - 145.880
NO-84 21 Nov 16:50:37 16:54:03 30° 335° (NNW) 16:57:43 435.350 FM
BEESAT 21 Nov 16:53:10 16:57:15 29° 294° (WNW) 17:01:20 436.000
ITUPSAT 1 21 Nov 17:03:19 17:07:09 25° 295° (WNW) 17:10:58 437.325
AO-7 21 Nov 17:04:30 17:08:41 15° 273° (W) 17:12:56 .
XW-2B 21 Nov 17:04:38 17:08:00 32° 71° (ENE) 17:11:23 145.730 - 145.750
DOVE 4 21 Nov 17:08:56 17:13:44 45° 263° (W) 17:18:47 437.250
MOZHAYETS 4 21 Nov 17:13:26 17:15:48 14° 299° (WNW) 17:18:10
NUDT-PHONESAT 21 Nov 17:17:58 17:21:13 32° 71° (ENE) 17:24:31 437.300
KKS-1 21 Nov 17:23:58 17:28:19 48° 100° (E) 17:32:37 437.445
CUBESAT XI-V 21 Nov 17:24:21 17:28:42 39° 290° (WNW) 17:33:04 437.345
XW-2C 21 Nov 17:29:51 17:33:34 69° 75° (ENE) 17:37:18 145.795 - 145.815
LilacSat-2 21 Nov 17:32:19 17:36:03 81° 79° (ENE) 17:39:51 437.200
XW-2F 21 Nov 17:40:10 17:43:53 87° 77° (ENE) 17:47:38 145.980 - 146.000
CUTE 1.7 + AOD 2 21 Nov 17:43:18 17:46:41 24° 67° (ENE) 17:50:04 437.475
STARS 21 Nov 17:47:14 17:51:15 34° 97° (E) 17:55:13 437.465
RS-15 21 Nov 17:58:31 18:09:36 42° 108° (ESE) 18:20:39 29.354- 29.394
UWE-3 21 Nov 18:04:38 18:07:11 15° 64° (ENE) 18:09:41 435.000/436.395/437.385
KAITUO 1B 21 Nov 18:07:28 18:11:03 54° 260° (W) 18:14:42 145.475/437.950
SEEDS 21 Nov 18:12:38 18:16:15 30° 69° (ENE) 18:19:55 437.485
CUTE-I 21 Nov 18:14:49 18:20:03 55° 259° (W) 18:25:22 437.470
AAUSAT CUBESAT 2 21 Nov 18:19:17 18:21:51 16° 64° (ENE) 18:24:26 437.432
XW-2D 21 Nov 18:24:14 18:27:18 24° 265° (W) 18:30:25 145.860 - 145.880
YUBILEINY 21 Nov 18:28:19 18:35:48 32° 277° (W) 18:43:15 435.215
NO-84 21 Nov 18:29:48 18:32:28 17° 356° (N) 18:35:12 435.350 FM
HO-68 21 Nov 18:29:55 18:37:08 87° 74° (ENE) 18:44:24 435.675
STRAND 1 21 Nov 18:31:06 18:32:58 12° 88° (E) 18:34:50 437.568
XW-2A 21 Nov 18:33:53 18:36:26 21° 69° (ENE) 18:38:59 145.665 - 145.685
XW-2B 21 Nov 18:39:44 18:42:15 17° 267° (W) 18:44:49 145.730 - 145.750
CUBEBUG 2 21 Nov 18:42:47 18:47:20 64° 74° (ENE) 18:51:45 437.445
AO-73 21 Nov 18:44:17 18:47:10 18° 65° (ENE) 18:50:01 145.935
NUDT-PHONESAT 21 Nov 18:52:45 18:55:09 17° 267° (W) 18:57:34 437.300
Oscar 11 21 Nov 19:00:07 19:03:02 18° 65° (ENE) 19:05:59 .
KKS-1 21 Nov 19:01:27 19:04:30 18° 297° (WNW) 19:07:32 437.445
CUTE 1.7 + AOD 2 21 Nov 19:18:39 19:22:22 31° 264° (W) 19:26:08 437.475
STARS 21 Nov 19:23:53 19:27:25 24° 294° (WNW) 19:30:54 437.465
ZACube-1 21 Nov 19:28:05 19:32:19 57° 74° (ENE) 19:36:30 437.345
UWE-3 21 Nov 19:38:49 19:43:12 57° 260° (W) 19:47:30 435.000/436.395/437.385
SEEDS 21 Nov 19:48:33 19:51:56 24° 266° (W) 19:55:21 437.485
AAUSAT CUBESAT 2 21 Nov 19:52:57 19:56:55 47° 261° (W) 20:00:56 437.432
XW-2A 21 Nov 20:06:27 20:09:02 21° 265° (W) 20:11:39 145.665 - 145.685
STRAND 1 21 Nov 20:07:39 20:12:48 84° 283° (WNW) 20:17:54 437.568
NO-84 21 Nov 20:07:46 20:11:02 21° 17° (NNE) 20:14:22 435.350 FM
RS-15 21 Nov 20:09:18 20:21:34 67° 311° (NW) 20:33:46 29.354- 29.394
AO-73 21 Nov 20:18:59 20:23:05 44° 261° (W) 20:27:08 145.935
DELFI C3 21 Nov 20:19:15 20:22:30 25° 68° (ENE) 20:25:47 145.870
HO-68 21 Nov 20:21:10 20:25:43 18° 271° (W) 20:30:18 435.675
CUBEBUG 2 21 Nov 20:22:06 20:24:18 13° 270° (W) 20:26:29 437.445
FO-29 21 Nov 20:26:15 20:33:45 46° 96° (E) 20:40:48 435.910
nSIGHT-1 21 Nov 20:32:49 20:35:43 31° 139° (SE) 20:38:37 .
Oscar 11 21 Nov 20:34:44 20:38:50 44° 262° (W) 20:42:58 .
SO-50 21 Nov 20:56:10 20:59:09 18° 111° (ESE) 21:02:09 436.795
ZACube-1 21 Nov 21:06:53 21:08:56 13° 270° (W) 21:10:58 437.345
UNISAT 6 21 Nov 21:13:56 21:16:42 17° 92° (E) 21:19:26 437.425
EO-88 21 Nov 21:14:24 21:17:55 50° 74° (ENE) 21:21:27 145.990 - 145.960
Max Valier Satellite 21 Nov 21:17:19 21:20:57 81° 76° (ENE) 21:24:37 145.860
TIGRISAT 21 Nov 21:18:06 21:20:53 17° 92° (E) 21:23:38 435.000
ISS 21 Nov 21:18:15 21:21:31 70° 144° (SE) 21:24:47 437.550
LO-87 21 Nov 21:38:52 21:40:36 13° 65° (ENE) 21:42:20 145.935 - 145.965
NO-84 21 Nov 21:44:48 21:49:02 66° 36° (NE) 21:53:16 435.350 FM
STRAND 1 21 Nov 21:49:11 21:51:09 12° 303° (WNW) 21:53:06 437.568
ESTCUBE 1 21 Nov 21:53:17 21:56:23 19° 64° (ENE) 21:59:29 437.505/2401.250
DELFI C3 21 Nov 21:53:46 21:57:08 26° 265° (W) 22:00:33 145.870
PRISM 21 Nov 22:02:06 22:05:02 18° 93° (E) 22:07:57 437.425
nSIGHT-1 21 Nov 22:08:51 22:11:53 39° 336° (NNW) 22:14:56 .
FO-29 21 Nov 22:11:22 22:18:37 42° 296° (WNW) 22:25:32 435.910
RS-15 21 Nov 22:26:31 22:36:58 30° 340° (NNW) 22:47:12 29.354- 29.394
SO-50 21 Nov 22:34:47 22:39:09 55° 308° (NW) 22:43:37 436.795
UNISAT 6 21 Nov 22:49:34 22:53:39 44° 289° (WNW) 22:57:41 437.425
O/OREOS (USA 219) 21 Nov 22:49:52 22:54:16 45° 62° (ENE) 22:58:35 437.305
EO-88 21 Nov 22:50:56 22:51:51 11° 270° (W) 22:52:45 145.990 - 145.960
TIGRISAT 21 Nov 22:53:45 22:57:48 43° 289° (WNW) 23:01:50 435.000
ISS 21 Nov 22:55:23 22:58:14 26° 344° (NNW) 23:01:05 437.550
SPROUT 21 Nov 23:02:45 23:06:08 23° 66° (ENE) 23:09:31 437.525
QB50P2 21 Nov 23:09:26 23:11:18 13° 90° (E) 23:13:09 145.880/145.840
LO-87 21 Nov 23:10:08 23:13:37 44° 261° (W) 23:17:05 145.935 - 145.965
NO-84 21 Nov 23:22:51 23:26:04 21° 233° (SW) 23:29:15 435.350 FM
ESTCUBE 1 21 Nov 23:28:30 23:32:48 47° 261° (W) 23:37:10 437.505/2401.250
PRISM 21 Nov 23:36:33 23:40:27 39° 290° (WNW) 23:44:19 437.425
AIST 2D 21 Nov 23:38:40 23:42:12 80° 100° (E) 23:45:44 435.315
PCSat 21 Nov 23:43:45 23:48:31 32° 110° (ESE) 23:53:17 145.827
VELOX 1 21 Nov 23:45:49 23:50:00 43° 71° (ENE) 23:54:14 145.980
nSIGHT-1 21 Nov 23:46:21 23:48:44 19° 356° (N) 23:51:07 .
DUCHIFAT 1 21 Nov 23:56:28 00:00:06 28° 96° (E) 00:03:42 145.980
EO-79 22 Nov 00:04:25 00:08:28 45° 99° (E) 00:12:29 145.935-145.965
NANOSAT C BR1 22 Nov 00:07:12 00:11:12 43° 99° (E) 00:15:10 145.865
SO-50 22 Nov 00:19:03 00:20:38 12° 330° (NNW) 00:22:14 436.795
POLYITAN 1 22 Nov 00:19:51 00:24:02 69° 101° (E) 00:28:12 437.675
DX 1 22 Nov 00:29:24 00:33:13 30° 68° (ENE) 00:37:02 434.975-435.025
O/OREOS (USA 219) 22 Nov 00:30:07 00:33:17 19° 260° (W) 00:36:27 437.305
ISS 22 Nov 00:33:00 00:35:27 19° 3° (N) 00:37:55 437.550
SPROUT 22 Nov 00:37:57 00:41:50 33° 263° (W) 00:45:45 437.525
QB50P2 22 Nov 00:43:18 00:47:27 58° 286° (WNW) 00:51:33 145.880/145.840
RS-15 22 Nov 00:44:26 00:54:33 29° 16° (NNE) 01:04:16 29.354- 29.394
50 SAT 22 Nov 00:45:04 00:48:07 40° 73° (ENE) 00:51:12 437.505
BUGSAT 1 22 Nov 00:46:20 00:49:38 24° 95° (E) 00:52:53 437.445
UKube-1 22 Nov 01:09:26 01:13:35 49° 71° (ENE) 01:17:47 .
Oscar 19 22 Nov 01:18:18 01:22:53 31° 96° (E) 01:27:27 437.125/150
nSIGHT-1 22 Nov 01:22:58 01:25:44 25° 16° (NNE) 01:28:27 .
VELOX 1 22 Nov 01:23:29 01:26:38 19° 267° (W) 01:29:49 145.980
PCSat 22 Nov 01:26:42 01:31:47 40° 309° (NW) 01:36:55 145.827
DUCHIFAT 1 22 Nov 01:32:13 01:35:39 25° 293° (WNW) 01:39:05 145.980
EO-79 22 Nov 01:41:08 01:43:52 17° 296° (WNW) 01:46:35 145.935-145.965
NANOSAT C BR1 22 Nov 01:43:45 01:46:34 18° 296° (WNW) 01:49:23 145.865
Gurwin Techsat 1B 22 Nov 01:49:32 01:54:38 44° 99° (E) 01:59:40 435.225
POLYITAN 1 22 Nov 01:57:36 01:59:15 12° 299° (WNW) 02:00:54 437.675
DX 1 22 Nov 02:05:40 02:09:21 27° 264° (W) 02:13:05 434.975-435.025
ISS 22 Nov 02:09:28 02:12:34 38° 23° (NNE) 02:15:39 437.550
50 SAT 22 Nov 02:19:52 02:20:25 10° 269° (W) 02:21:01 437.505
BUGSAT 1 22 Nov 02:21:30 02:24:58 28° 292° (WNW) 02:28:23 437.445
BEESAT 22 Nov 02:22:30 02:27:00 43° 70° (ENE) 02:31:30 436.000
BEESAT 2 22 Nov 02:29:37 02:31:16 12° 109° (ESE) 02:32:56 435.950
ITUPSAT 1 22 Nov 02:32:36 02:37:15 52° 71° (ENE) 02:41:54 437.325
MOZHAYETS 4 22 Nov 02:37:14 02:41:47 74° 75° (ENE) 02:46:21
UKube-1 22 Nov 02:47:13 02:49:52 16° 268° (W) 02:52:33 .
BEESAT 3 22 Nov 02:50:52 02:54:50 73° 122° (ESE) 02:58:50 437.485
CUBESAT XI-V 22 Nov 02:51:54 02:55:38 25° 66° (ENE) 02:59:26 437.345
Oscar 19 22 Nov 02:57:34 03:02:11 34° 293° (WNW) 03:06:48 437.125/150
RS-15 22 Nov 02:58:20 03:10:11 61° 47° (NE) 03:21:21 29.354- 29.394
nSIGHT-1 22 Nov 02:59:01 03:02:13 74° 215° (SW) 03:05:23 .
AO-7 22 Nov 03:06:56 03:14:23 35° 97° (E) 03:21:47 .
ITAMSAT 1 22 Nov 03:12:59 03:17:00 22° 93° (E) 03:20:59 435.822/435.867
PCSat 22 Nov 03:16:18 03:16:45 10° 332° (NNW) 03:17:12 145.827
M-CUBED/EXP-1 PRIME 22 Nov 03:26:56 03:31:30 86° 107° (ESE) 03:36:10 437.505
Gurwin Techsat 1B 22 Nov 03:29:57 03:34:19 27° 296° (WNW) 03:38:41 435.225
YUBILEINY 22 Nov 03:43:37 03:46:22 12° 71° (ENE) 03:49:07 435.215
ISS 22 Nov 03:46:02 03:49:01 33° 221° (SW) 03:51:59 437.550
AO-85 22 Nov 03:52:02 03:55:31 32° 116° (ESE) 03:59:08 145.980
BEESAT 22 Nov 04:01:16 04:04:56 22° 266° (W) 04:08:37 436.000
BEESAT 2 22 Nov 04:04:26 04:08:27 66° 306° (NW) 04:12:30 435.950
ITUPSAT 1 22 Nov 04:12:09 04:15:22 18° 268° (W) 04:18:35 437.325
MOZHAYETS 4 22 Nov 04:17:57 04:19:26 11° 271° (W) 04:20:57
KKS-1 22 Nov 04:22:42 04:27:02 52° 72° (ENE) 04:31:25 437.445
CUBESAT XI-V 22 Nov 04:28:40 04:32:51 35° 263° (W) 04:37:05 437.345
BEESAT 3 22 Nov 04:30:22 04:32:50 16° 321° (NW) 04:35:19 437.485
STARS 22 Nov 04:44:34 04:48:36 36° 69° (ENE) 04:52:40 437.465
ITAMSAT 1 22 Nov 04:51:42 04:56:43 49° 290° (WNW) 05:01:41 435.822/435.867
AO-7 22 Nov 04:59:21 05:07:27 57° 296° (WNW) 05:15:33 .
M-CUBED/EXP-1 PRIME 22 Nov 05:03:09 05:05:15 13° 305° (NW) 05:07:23 437.505
DOVE 4 22 Nov 05:06:33 05:11:37 51° 98° (E) 05:16:24 437.250
RS-15 22 Nov 05:11:27 05:22:14 45° 251° (WSW) 05:32:32 29.354- 29.394
SO-50 22 Nov 05:24:40 05:28:37 27° 44° (NE) 05:32:35 436.795
AO-85 22 Nov 05:32:36 05:35:57 26° 316° (NW) 05:39:25 145.980
YUBILEINY 22 Nov 05:32:40 05:41:15 65° 92° (E) 05:49:57 435.215
KAITUO 1B 22 Nov 05:38:31 05:40:19 13° 91° (E) 05:42:07 145.475/437.950
BEESAT 2 22 Nov 05:45:39 05:46:57 11° 326° (NW) 05:48:15 435.950
STRAND 1 22 Nov 05:47:07 05:50:56 21° 62° (ENE) 05:54:45 437.568
XW-2D 22 Nov 05:54:45 05:58:06 29° 96° (E) 06:01:27 145.860 - 145.880
HO-68 22 Nov 05:58:34 06:02:26 15° 87° (E) 06:06:17 435.675
KKS-1 22 Nov 06:01:06 06:03:52 16° 268° (W) 06:06:41 437.445
XW-2B 22 Nov 06:09:24 06:13:02 41° 98° (E) 06:16:40 145.730 - 145.750
NUDT-PHONESAT 22 Nov 06:20:00 06:23:29 37° 98° (E) 06:26:58 437.300
STARS 22 Nov 06:21:31 06:25:01 23° 266° (W) 06:28:32 437.465
CUTE-I 22 Nov 06:30:31 06:35:47 55° 100° (E) 06:41:01 437.470
CUBEBUG 2 22 Nov 06:34:52 06:35:57 11° 89° (E) 06:37:01 437.445
XW-2C 22 Nov 06:34:56 06:38:46 89° 100° (E) 06:42:36 145.795 - 145.815
LilacSat-2 22 Nov 06:38:13 06:42:04 78° 284° (WNW) 06:45:55 437.200
